AAL489 KORD-KDCA

Flight info

Callsign AAL489
Flight time 1h 15m
Altitude 37000
Route MOBLE ADIME OTENS ANEWA JERRI NUSMM BUCKO FRDMM6
Aircraft A319/M-SDE3FGHIRWY/LB1

Departure

Time 2026-05-06 10:27
Airport Chicago O'Hare International Airport (KORD)

Arrival

Time 2026-05-06 11:42
Airport Ronald Reagan Washington National Airport (KDCA)
Time Latitude Longitude Altitude Speed Heading
2026-05-06 10:00 41.97403 -87.89647 678 ft 0 kts 297°
2026-05-06 10:11 41.97403 -87.89646 669 ft 0 kts 297°
2026-05-06 10:18 41.97399 -87.89635 668 ft 4 kts 297°
2026-05-06 10:18 41.97386 -87.89603 667 ft 4 kts 296°
2026-05-06 10:18 41.97377 -87.89578 666 ft 4 kts 273°
2026-05-06 10:18 41.97385 -87.89552 668 ft 4 kts 205°
2026-05-06 10:19 41.97407 -87.89540 669 ft 2 kts 197°
2026-05-06 10:19 41.97408 -87.89540 669 ft 0 kts 197°
2026-05-06 10:22 41.97406 -87.89540 669 ft 1 kts 197°
2026-05-06 10:22 41.97397 -87.89544 668 ft 3 kts 198°
2026-05-06 10:23 41.97356 -87.89575 669 ft 11 kts 226°
2026-05-06 10:23 41.97293 -87.89606 669 ft 11 kts 144°
2026-05-06 10:23 41.97232 -87.89545 668 ft 11 kts 144°
2026-05-06 10:23 41.97190 -87.89457 669 ft 11 kts 116°
2026-05-06 10:24 41.97118 -87.89438 669 ft 11 kts 183°
2026-05-06 10:24 41.97046 -87.89415 669 ft 11 kts 121°
2026-05-06 10:24 41.97043 -87.89299 669 ft 14 kts 89°
2026-05-06 10:24 41.97044 -87.89166 669 ft 15 kts 89°
2026-05-06 10:25 41.97041 -87.89024 669 ft 16 kts 92°
2026-05-06 10:25 41.97043 -87.88871 668 ft 17 kts 88°
2026-05-06 10:25 41.97043 -87.88709 669 ft 18 kts 89°
2026-05-06 10:25 41.97044 -87.88540 669 ft 19 kts 90°
2026-05-06 10:26 41.96991 -87.88445 668 ft 13 kts 182°
2026-05-06 10:26 41.96909 -87.88486 667 ft 13 kts 246°
2026-05-06 10:26 41.96907 -87.88661 668 ft 43 kts 270°
2026-05-06 10:26 41.96906 -87.89448 671 ft 121 kts 270°
2026-05-06 10:27 41.96905 -87.90857 742 ft 171 kts 271°
2026-05-06 10:27 41.96901 -87.92458 1462 ft 173 kts 271°
2026-05-06 10:27 41.96892 -87.94082 2269 ft 173 kts 273°
2026-05-06 10:27 41.96892 -87.95783 2779 ft 193 kts 273°
2026-05-06 10:28 41.96842 -87.97687 3193 ft 217 kts 261°
2026-05-06 10:28 41.96092 -87.99584 3606 ft 248 kts 227°
2026-05-06 10:28 41.94559 -88.00805 4360 ft 267 kts 197°
2026-05-06 10:28 41.92699 -88.01163 5451 ft 272 kts 187°
2026-05-06 10:29 41.90793 -88.01146 6511 ft 280 kts 171°
2026-05-06 10:29 41.88990 -88.00075 7480 ft 291 kts 146°
2026-05-06 10:29 41.87614 -87.98048 8435 ft 301 kts 120°
2026-05-06 10:29 41.86978 -87.95358 9367 ft 308 kts 93°
2026-05-06 10:30 41.87126 -87.92465 10183 ft 317 kts 80°
2026-05-06 10:30 41.87417 -87.89420 10566 ft 341 kts 81°
2026-05-06 10:30 41.87723 -87.86188 11195 ft 354 kts 82°
2026-05-06 10:30 41.88029 -87.82875 11967 ft 362 kts 82°
2026-05-06 10:31 41.88333 -87.79486 12746 ft 369 kts 83°
2026-05-06 10:31 41.88637 -87.76027 13515 ft 376 kts 83°
2026-05-06 10:31 41.88941 -87.72507 14201 ft 383 kts 84°
2026-05-06 10:31 41.89249 -87.68920 14859 ft 390 kts 84°
2026-05-06 10:32 41.89563 -87.65283 15526 ft 396 kts 84°
2026-05-06 10:32 41.89886 -87.61581 16195 ft 401 kts 84°
2026-05-06 10:32 41.90214 -87.57838 16853 ft 407 kts 84°
2026-05-06 10:32 41.90545 -87.54034 17514 ft 413 kts 84°
2026-05-06 10:33 41.90877 -87.50183 18172 ft 419 kts 84°
2026-05-06 10:33 41.91212 -87.46272 18741 ft 424 kts 84°
2026-05-06 10:33 41.91550 -87.42311 19309 ft 429 kts 84°
2026-05-06 10:33 41.91890 -87.38305 19884 ft 435 kts 84°
2026-05-06 10:34 41.92232 -87.34252 20454 ft 440 kts 84°
2026-05-06 10:34 41.92578 -87.30152 21028 ft 444 kts 84°
2026-05-06 10:34 41.92927 -87.26014 21620 ft 448 kts 84°
2026-05-06 10:34 41.93276 -87.21832 22195 ft 453 kts 85°
2026-05-06 10:35 41.93623 -87.17608 22769 ft 457 kts 85°
2026-05-06 10:35 41.93974 -87.13345 23332 ft 462 kts 85°
2026-05-06 10:35 41.94329 -87.09039 23841 ft 466 kts 85°
2026-05-06 10:35 41.94586 -87.04692 24310 ft 468 kts 91°
2026-05-06 10:36 41.94658 -87.00306 24791 ft 471 kts 91°
2026-05-06 10:36 41.94727 -86.95892 25292 ft 474 kts 92°
2026-05-06 10:36 41.94792 -86.91448 25728 ft 478 kts 92°
2026-05-06 10:36 41.94857 -86.86968 26197 ft 481 kts 92°
2026-05-06 10:37 41.94923 -86.82470 26636 ft 484 kts 92°
2026-05-06 10:37 41.94984 -86.77930 27071 ft 487 kts 93°
2026-05-06 10:37 41.95043 -86.73367 27490 ft 491 kts 93°
2026-05-06 10:37 41.95102 -86.68765 27917 ft 494 kts 93°
2026-05-06 10:38 41.95161 -86.64133 28346 ft 498 kts 93°
2026-05-06 10:38 41.95222 -86.59532 28753 ft 501 kts 94°
2026-05-06 10:38 41.95285 -86.54776 29140 ft 505 kts 93°
2026-05-06 10:38 41.95343 -86.50105 29529 ft 508 kts 94°
2026-05-06 10:39 41.95397 -86.45343 29924 ft 512 kts 94°
2026-05-06 10:39 41.95449 -86.40550 30271 ft 515 kts 94°
2026-05-06 10:39 41.95501 -86.35656 30599 ft 518 kts 93°
2026-05-06 10:39 41.95550 -86.30802 30924 ft 522 kts 93°
2026-05-06 10:40 41.95594 -86.25914 31223 ft 524 kts 94°
2026-05-06 10:40 41.95351 -86.21042 31515 ft 522 kts 103°
2026-05-06 10:40 41.94645 -86.16279 31856 ft 517 kts 111°
2026-05-06 10:40 41.93711 -86.11631 32341 ft 515 kts 111°
2026-05-06 10:41 41.92785 -86.06978 32768 ft 516 kts 110°
2026-05-06 10:41 41.91866 -86.02321 33168 ft 517 kts 110°
2026-05-06 10:41 41.90947 -85.97645 33425 ft 520 kts 110°
2026-05-06 10:41 41.90019 -85.92929 33752 ft 524 kts 110°
2026-05-06 10:42 41.89088 -85.88196 34058 ft 526 kts 110°
2026-05-06 10:42 41.88150 -85.83445 34359 ft 527 kts 110°
2026-05-06 10:42 41.87206 -85.78697 34663 ft 528 kts 110°
2026-05-06 10:42 41.86252 -85.73933 34960 ft 529 kts 110°
2026-05-06 10:43 41.85291 -85.69165 35259 ft 530 kts 110°
2026-05-06 10:43 41.84340 -85.64454 35545 ft 531 kts 110°
2026-05-06 10:43 41.83375 -85.59669 35827 ft 531 kts 110°
2026-05-06 10:44 41.81446 -85.50088 36383 ft 533 kts 110°
2026-05-06 10:44 41.80475 -85.45289 36656 ft 534 kts 110°
2026-05-06 10:44 41.79500 -85.40489 36849 ft 535 kts 111°
2026-05-06 10:45 41.77546 -85.30902 36936 ft 531 kts 111°
2026-05-06 10:45 41.75591 -85.21370 36934 ft 529 kts 111°
2026-05-06 10:46 41.73634 -85.11880 36934 ft 529 kts 111°
2026-05-06 10:46 41.71666 -85.02394 36925 ft 529 kts 111°
2026-05-06 10:47 41.69699 -84.92911 36932 ft 529 kts 111°
2026-05-06 10:47 41.67730 -84.83425 36929 ft 529 kts 111°
2026-05-06 10:48 41.66454 -84.73658 36935 ft 543 kts 96°
2026-05-06 10:48 41.66024 -84.63437 36924 ft 557 kts 96°
2026-05-06 10:49 41.65574 -84.52979 36926 ft 569 kts 96°
2026-05-06 10:49 41.65107 -84.42387 36925 ft 571 kts 96°
2026-05-06 10:50 41.64637 -84.31773 36918 ft 572 kts 96°
2026-05-06 10:50 41.64155 -84.21166 36920 ft 572 kts 96°
2026-05-06 10:51 41.63656 -84.10633 36909 ft 571 kts 96°
2026-05-06 10:51 41.63143 -84.00026 36922 ft 572 kts 96°
2026-05-06 10:52 41.62628 -83.89418 36888 ft 571 kts 96°
2026-05-06 10:52 41.62106 -83.78823 36909 ft 571 kts 96°
2026-05-06 10:53 41.61565 -83.68248 36914 ft 570 kts 97°
2026-05-06 10:53 41.60545 -83.57806 36913 ft 562 kts 110°
2026-05-06 10:54 41.58323 -83.47814 36904 ft 562 kts 112°
2026-05-06 10:54 41.56062 -83.37765 36930 ft 565 kts 112°
2026-05-06 10:55 41.53820 -83.27764 36923 ft 566 kts 112°
2026-05-06 10:55 41.51556 -83.17714 36911 ft 565 kts 112°
2026-05-06 10:56 41.49275 -83.07687 36882 ft 565 kts 112°
2026-05-06 10:56 41.46985 -82.97674 36926 ft 565 kts 112°
2026-05-06 10:57 41.44688 -82.87665 36927 ft 564 kts 112°
2026-05-06 10:57 41.42392 -82.77656 36875 ft 564 kts 113°
2026-05-06 10:58 41.40064 -82.67684 36900 ft 562 kts 116°
2026-05-06 10:58 41.36597 -82.58612 36908 ft 540 kts 135°
2026-05-06 10:58 41.34273 -82.54758 36913 ft 527 kts 144°
2026-05-06 10:59 41.31731 -82.51286 36883 ft 523 kts 146°
2026-05-06 10:59 41.26622 -82.44377 36875 ft 524 kts 146°
2026-05-06 11:00 41.21511 -82.37447 36854 ft 525 kts 146°
2026-05-06 11:00 41.16380 -82.30498 36865 ft 528 kts 146°
2026-05-06 11:01 41.11224 -82.23534 36875 ft 530 kts 146°
2026-05-06 11:01 41.06924 -82.17741 36848 ft 531 kts 146°
2026-05-06 11:02 41.01689 -82.10728 36909 ft 538 kts 146°
2026-05-06 11:02 40.96425 -82.03682 36906 ft 538 kts 146°
2026-05-06 11:03 40.91152 -81.96630 36911 ft 538 kts 146°
2026-05-06 11:03 40.85882 -81.89588 36912 ft 538 kts 146°
2026-05-06 11:04 40.80607 -81.82554 36875 ft 539 kts 146°
2026-05-06 11:04 40.75321 -81.75544 36838 ft 539 kts 147°
2026-05-06 11:05 40.70024 -81.68543 36841 ft 539 kts 147°
2026-05-06 11:05 40.64763 -81.61598 36815 ft 539 kts 146°
2026-05-06 11:06 40.59467 -81.54613 36786 ft 539 kts 147°
2026-05-06 11:06 40.54137 -81.47618 36846 ft 542 kts 147°
2026-05-06 11:07 40.48788 -81.40622 36855 ft 543 kts 147°
2026-05-06 11:07 40.43437 -81.33625 36855 ft 543 kts 147°
2026-05-06 11:08 40.38084 -81.26635 36831 ft 543 kts 146°
2026-05-06 11:08 40.32730 -81.19665 36834 ft 543 kts 146°
2026-05-06 11:09 40.27367 -81.12702 36832 ft 542 kts 146°
2026-05-06 11:09 40.22005 -81.05743 36822 ft 542 kts 146°
2026-05-06 11:10 40.16642 -80.98802 36812 ft 542 kts 147°
2026-05-06 11:10 40.11270 -80.91884 36753 ft 542 kts 147°
2026-05-06 11:11 40.05889 -80.84965 36806 ft 544 kts 146°
2026-05-06 11:11 40.00513 -80.77997 36814 ft 546 kts 145°
2026-05-06 11:12 39.95256 -80.70831 36801 ft 548 kts 143°
2026-05-06 11:12 39.90038 -80.63594 36809 ft 547 kts 144°
2026-05-06 11:13 39.84780 -80.56430 36780 ft 546 kts 144°
2026-05-06 11:13 39.79529 -80.49368 36788 ft 547 kts 144°
2026-05-06 11:14 39.74221 -80.42253 36801 ft 548 kts 144°
2026-05-06 11:14 39.68909 -80.35131 36813 ft 549 kts 144°
2026-05-06 11:15 39.63597 -80.28005 36830 ft 549 kts 144°
2026-05-06 11:15 39.58285 -80.20873 36843 ft 550 kts 144°
2026-05-06 11:16 39.52962 -80.13755 36852 ft 550 kts 144°
2026-05-06 11:16 39.47631 -80.06660 36850 ft 550 kts 144°
2026-05-06 11:17 39.42345 -79.99634 36515 ft 536 kts 144°
2026-05-06 11:17 39.39769 -79.96201 36082 ft 529 kts 144°
2026-05-06 11:17 39.37210 -79.92801 35636 ft 524 kts 144°
2026-05-06 11:17 39.34653 -79.89424 34758 ft 528 kts 143°
2026-05-06 11:18 39.32235 -79.85808 34166 ft 538 kts 132°
2026-05-06 11:18 39.30343 -79.81621 33585 ft 541 kts 118°
2026-05-06 11:18 39.29109 -79.77041 32748 ft 540 kts 104°
2026-05-06 11:18 39.28568 -79.72286 31914 ft 532 kts 96°
2026-05-06 11:19 39.28217 -79.67560 31096 ft 525 kts 96°
2026-05-06 11:19 39.27858 -79.62904 30375 ft 516 kts 96°
2026-05-06 11:19 39.27495 -79.58360 29960 ft 501 kts 97°
2026-05-06 11:19 39.27132 -79.53932 29691 ft 491 kts 97°
2026-05-06 11:20 39.26773 -79.49586 29422 ft 486 kts 97°
2026-05-06 11:20 39.26406 -79.45148 29149 ft 507 kts 97°
2026-05-06 11:20 39.26028 -79.40586 28864 ft 513 kts 97°
2026-05-06 11:20 39.25657 -79.36034 28593 ft 507 kts 97°
2026-05-06 11:21 39.25291 -79.31524 28320 ft 503 kts 97°
2026-05-06 11:21 39.24923 -79.27045 28062 ft 501 kts 98°
2026-05-06 11:21 39.24552 -79.22587 27736 ft 498 kts 98°
2026-05-06 11:21 39.24180 -79.18157 27129 ft 495 kts 98°
2026-05-06 11:22 39.23807 -79.13767 26593 ft 489 kts 98°
2026-05-06 11:22 39.23434 -79.09435 26046 ft 484 kts 98°
2026-05-06 11:22 39.23066 -79.05198 25515 ft 479 kts 98°
2026-05-06 11:22 39.22699 -79.00954 24987 ft 474 kts 98°
2026-05-06 11:23 39.22334 -78.96747 24457 ft 469 kts 98°
2026-05-06 11:23 39.21966 -78.92586 23941 ft 465 kts 99°
2026-05-06 11:23 39.21580 -78.88465 23424 ft 461 kts 99°
2026-05-06 11:23 39.21184 -78.84399 22986 ft 454 kts 100°
2026-05-06 11:24 39.20781 -78.80353 22401 ft 453 kts 100°
2026-05-06 11:24 39.20381 -78.76354 21874 ft 449 kts 100°
2026-05-06 11:24 39.19984 -78.72367 21501 ft 444 kts 100°
2026-05-06 11:24 39.19595 -78.68425 20871 ft 445 kts 100°
2026-05-06 11:25 39.19210 -78.64519 20599 ft 435 kts 101°
2026-05-06 11:25 39.18832 -78.60664 20183 ft 430 kts 101°
2026-05-06 11:25 39.18457 -78.56860 19738 ft 426 kts 101°
2026-05-06 11:25 39.18083 -78.53082 19267 ft 423 kts 101°
2026-05-06 11:26 39.17709 -78.49339 18820 ft 419 kts 101°
2026-05-06 11:26 39.17335 -78.45626 18374 ft 416 kts 102°
2026-05-06 11:26 39.16962 -78.41946 17902 ft 413 kts 102°
2026-05-06 11:26 39.16591 -78.38292 17412 ft 409 kts 102°
2026-05-06 11:27 39.15969 -78.34765 16966 ft 399 kts 113°
2026-05-06 11:27 39.15125 -78.31378 16468 ft 396 kts 113°
2026-05-06 11:27 39.14288 -78.28013 16055 ft 392 kts 113°
2026-05-06 11:27 39.13462 -78.24684 15712 ft 388 kts 113°
2026-05-06 11:28 39.12643 -78.21384 15368 ft 385 kts 113°
2026-05-06 11:28 39.11831 -78.18115 15026 ft 382 kts 113°
2026-05-06 11:28 39.11023 -78.14872 14688 ft 379 kts 113°
2026-05-06 11:28 39.10223 -78.11655 14353 ft 376 kts 113°
2026-05-06 11:29 39.09427 -78.08469 14017 ft 372 kts 114°
2026-05-06 11:29 39.08625 -78.05312 13686 ft 370 kts 114°
2026-05-06 11:29 39.07822 -78.02185 13325 ft 367 kts 114°
2026-05-06 11:29 39.07022 -77.99079 12997 ft 365 kts 114°
2026-05-06 11:30 39.06227 -77.95991 12654 ft 362 kts 114°
2026-05-06 11:30 39.05442 -77.92936 12344 ft 357 kts 114°
2026-05-06 11:30 39.04668 -77.89923 12030 ft 354 kts 114°
2026-05-06 11:30 39.03897 -77.86925 11711 ft 352 kts 114°
2026-05-06 11:31 39.03132 -77.83948 11399 ft 350 kts 114°
2026-05-06 11:31 39.02369 -77.80986 11123 ft 348 kts 114°
2026-05-06 11:31 39.01608 -77.78037 10809 ft 347 kts 114°
2026-05-06 11:31 39.00851 -77.75102 10509 ft 345 kts 114°
2026-05-06 11:32 39.00097 -77.72184 10204 ft 343 kts 114°
2026-05-06 11:32 38.99343 -77.69274 9897 ft 342 kts 114°
2026-05-06 11:32 38.98592 -77.66383 9569 ft 340 kts 114°
2026-05-06 11:32 38.97826 -77.63519 9273 ft 338 kts 115°
2026-05-06 11:33 38.97010 -77.60687 8975 ft 337 kts 116°
2026-05-06 11:33 38.96172 -77.57891 8634 ft 331 kts 117°
2026-05-06 11:33 38.95362 -77.55193 8507 ft 316 kts 116°
2026-05-06 11:33 38.94881 -77.52475 8380 ft 311 kts 98°
2026-05-06 11:34 38.95052 -77.49732 8139 ft 309 kts 79°
2026-05-06 11:34 38.95803 -77.47150 7778 ft 309 kts 68°
2026-05-06 11:34 38.96660 -77.44631 7381 ft 307 kts 68°
2026-05-06 11:34 38.97507 -77.42128 6911 ft 304 kts 68°
2026-05-06 11:35 38.98340 -77.39641 6382 ft 302 kts 69°
2026-05-06 11:35 38.99165 -77.37161 5819 ft 301 kts 68°
2026-05-06 11:35 38.99986 -77.34692 5329 ft 300 kts 69°
2026-05-06 11:35 39.00805 -77.32229 4907 ft 299 kts 68°
2026-05-06 11:36 39.01624 -77.29777 4485 ft 297 kts 68°
2026-05-06 11:36 39.02362 -77.27317 4037 ft 294 kts 80°
2026-05-06 11:36 39.02460 -77.24747 3575 ft 284 kts 104°
2026-05-06 11:36 39.01859 -77.22417 3239 ft 267 kts 129°
2026-05-06 11:37 39.00800 -77.20644 3099 ft 234 kts 147°
2026-05-06 11:37 38.99677 -77.19271 2992 ft 215 kts 148°
2026-05-06 11:37 38.98622 -77.17976 2892 ft 206 kts 149°
2026-05-06 11:37 38.97598 -77.16705 2802 ft 202 kts 149°
2026-05-06 11:38 38.96615 -77.15458 2735 ft 194 kts 149°
2026-05-06 11:38 38.95638 -77.14294 2537 ft 191 kts 154°
2026-05-06 11:38 38.94664 -77.13199 2330 ft 177 kts 155°
2026-05-06 11:38 38.93763 -77.12192 2087 ft 164 kts 152°
2026-05-06 11:39 38.92892 -77.11473 1898 ft 140 kts 165°
2026-05-06 11:39 38.92066 -77.10948 1619 ft 125 kts 148°
2026-05-06 11:39 38.91314 -77.10363 1536 ft 130 kts 151°
2026-05-06 11:39 38.90748 -77.09461 1375 ft 132 kts 132°
2026-05-06 11:40 38.90453 -77.08315 1193 ft 135 kts 112°
2026-05-06 11:40 38.90078 -77.07273 1025 ft 125 kts 135°
2026-05-06 11:40 38.89512 -77.06463 854 ft 122 kts 142°
2026-05-06 11:40 38.88929 -77.05662 695 ft 124 kts 136°
2026-05-06 11:41 38.88344 -77.04857 544 ft 121 kts 139°
2026-05-06 11:41 38.87718 -77.04199 376 ft 114 kts 157°
2026-05-06 11:41 38.86955 -77.03956 211 ft 119 kts 176°
2026-05-06 11:41 38.86134 -77.03868 66 ft 118 kts 178°
2026-05-06 11:42 38.85393 -77.03803 26 ft 91 kts 172°
2026-05-06 11:42 38.84959 -77.03758 24 ft 35 kts 179°
2026-05-06 11:42 38.84880 -77.03853 24 ft 13 kts 269°
2026-05-06 11:42 38.84921 -77.03892 24 ft 8 kts 353°
2026-05-06 11:43 38.84985 -77.03900 24 ft 10 kts 355°
2026-05-06 11:43 38.85058 -77.03906 24 ft 11 kts 356°
2026-05-06 11:43 38.85139 -77.03915 24 ft 12 kts 354°
2026-05-06 11:44 38.85294 -77.03932 24 ft 14 kts 355°
2026-05-06 11:44 38.85397 -77.03941 24 ft 15 kts 356°
2026-05-06 11:44 38.85502 -77.03950 24 ft 16 kts 355°
2026-05-06 11:44 38.85558 -77.04012 24 ft 12 kts 265°
2026-05-06 11:45 38.85546 -77.04062 24 ft 6 kts 249°
2026-05-06 11:45 38.85530 -77.04116 24 ft 7 kts 252°
2026-05-06 11:45 38.85516 -77.04175 24 ft 8 kts 252°
2026-05-06 11:45 38.85546 -77.04212 24 ft 7 kts 338°
2026-05-06 11:46 38.85561 -77.04220 26 ft 0 kts 336°